User: anonymous   Login
Location: Unspecified
(0.0000°N, 0.0000°E)
Time: 01:29:54
(UTC+00:00)
Language:

Snapshot - Orbit

View from above orbital plane
View from above orbital plane
View from above satellite
View from above satellite

Ground track
Ground track

The orbit data is extracted from the following two-line orbital elements,

1  1314U 65027A   16235.78771741 -.00000026 +00000-0 -12076-3 0  9997
2  1314 090.3036 276.4407 0028574 278.6314 214.6833 12.91746872168132
Epoch (UTC): 22 August 2016 18:54:18
Eccentricity: 0.0028574
inclination: 90.3036°
perigee height: 1272 km
apogee height: 1316 km
right ascension of ascending node: 276.4407°
argument of perigee: 278.6314°
revolutions per day: 12.91746872
mean anomaly at epoch: 214.6833°
orbit number at epoch: 16813

The dashed part of the orbit path shows where the satellite is in the earth's shadow,  

DLR